HAZ3187 ZGGG-ZLDH

Flight info

Callsign HAZ3187
Flight time N/A
Altitude 36100
Route AGVIL9 AGVIL W24 OSNOV G586 QP B330 ELKAL W179 OMBON W195 IDOPA W197 ANDIM B215 TODOD TODOD9
Aircraft A320/M-SDE3FGHIRWY/LB1

Departure

Time N/A
Airport Guangzhou Baiyun International Airport (ZGGG)

Arrival

Time 2026-04-25 18:07
Airport Dunhuang Mogao International Airport (ZLDH)
Time Latitude Longitude Altitude Speed Heading
2026-04-25 14:53 26.60515 107.20891 36199 ft 411 kts 295°
2026-04-25 14:54 26.62952 107.15117 36208 ft 411 kts 295°
2026-04-25 14:54 26.65394 107.09343 36214 ft 411 kts 295°
2026-04-25 14:55 26.67851 107.03560 36185 ft 412 kts 295°
2026-04-25 14:55 26.70328 106.97749 36200 ft 418 kts 295°
2026-04-25 14:56 26.72848 106.91802 36201 ft 427 kts 295°
2026-04-25 14:56 26.75407 106.85765 36209 ft 431 kts 295°
2026-04-25 14:57 26.78059 106.79742 36188 ft 432 kts 301°
2026-04-25 14:57 26.82004 106.74762 36200 ft 434 kts 317°
2026-04-25 14:58 26.86566 106.70323 36181 ft 434 kts 317°
2026-04-25 14:58 26.91127 106.65866 36176 ft 436 kts 316°
2026-04-25 14:59 26.95688 106.61381 36173 ft 437 kts 316°
2026-04-25 14:59 27.00267 106.56882 36164 ft 438 kts 316°
2026-04-25 15:00 27.04851 106.52378 36179 ft 438 kts 316°
2026-04-25 15:00 27.09430 106.47871 36186 ft 438 kts 316°
2026-04-25 15:01 27.14004 106.43369 36184 ft 437 kts 317°
2026-04-25 15:01 27.18564 106.38876 36176 ft 436 kts 316°
2026-04-25 15:02 27.23122 106.34390 36154 ft 435 kts 317°
2026-04-25 15:02 27.27674 106.29959 36151 ft 436 kts 317°
2026-04-25 15:03 27.32271 106.25509 36146 ft 436 kts 317°
2026-04-25 15:03 27.36863 106.21046 36134 ft 437 kts 317°
2026-04-25 15:04 27.41447 106.16562 36142 ft 437 kts 317°
2026-04-25 15:04 27.44515 106.13560 36145 ft 437 kts 317°
2026-04-25 15:06 27.57685 106.00662 36122 ft 437 kts 317°
2026-04-25 15:06 27.62275 105.96159 36085 ft 437 kts 317°
2026-04-25 15:07 27.66867 105.91644 36075 ft 438 kts 317°
2026-04-25 15:07 27.71336 105.86983 36072 ft 438 kts 308°
2026-04-25 15:08 27.74359 105.81073 36083 ft 436 kts 289°
2026-04-25 15:08 27.75876 105.75646 36082 ft 436 kts 288°
2026-04-25 15:09 27.78017 105.68020 36082 ft 435 kts 289°
2026-04-25 15:09 27.81046 105.58362 36047 ft 435 kts 294°
2026-04-25 15:10 27.83073 105.53147 36048 ft 436 kts 294°
2026-04-25 15:11 27.86715 105.43712 36045 ft 437 kts 294°
2026-04-25 15:11 27.89165 105.37422 36050 ft 438 kts 295°
2026-04-25 15:12 27.93262 105.28203 36004 ft 437 kts 297°
2026-04-25 15:12 27.95597 105.23118 36010 ft 439 kts 297°
2026-04-25 15:13 28.02081 105.14454 36004 ft 443 kts 326°
2026-04-25 15:14 28.07337 105.10794 35987 ft 443 kts 326°
2026-04-25 15:14 28.12595 105.07129 36005 ft 444 kts 326°
2026-04-25 15:15 28.17842 105.03456 35992 ft 443 kts 326°
2026-04-25 15:15 28.23078 104.99786 35993 ft 442 kts 326°
2026-04-25 15:16 28.28309 104.96122 35990 ft 442 kts 326°
2026-04-25 15:16 28.36148 104.90628 35965 ft 442 kts 326°
2026-04-25 15:17 28.44000 104.85113 35965 ft 442 kts 326°
2026-04-25 15:18 28.49238 104.81449 35967 ft 442 kts 326°
2026-04-25 15:18 28.57098 104.75961 35962 ft 442 kts 326°
2026-04-25 15:19 28.61443 104.72917 35960 ft 441 kts 326°
2026-04-25 15:19 28.67553 104.68614 35952 ft 441 kts 326°
2026-04-25 15:20 28.72776 104.64938 35951 ft 441 kts 326°
2026-04-25 15:20 28.78009 104.61263 35964 ft 442 kts 326°
2026-04-25 15:21 28.83242 104.57582 35958 ft 442 kts 326°
2026-04-25 15:21 28.88466 104.53885 35954 ft 442 kts 326°
2026-04-25 15:22 28.93686 104.50166 35958 ft 442 kts 326°
2026-04-25 15:22 28.98876 104.46462 35960 ft 443 kts 326°
2026-04-25 15:23 29.04096 104.42737 35958 ft 443 kts 326°
2026-04-25 15:23 29.09352 104.38980 35967 ft 443 kts 325°
2026-04-25 15:24 29.14542 104.35273 35975 ft 442 kts 325°
2026-04-25 15:24 29.18908 104.32153 35976 ft 442 kts 325°
2026-04-25 15:25 29.25144 104.28134 35969 ft 447 kts 337°
2026-04-25 15:25 29.31315 104.26998 35965 ft 458 kts 358°
2026-04-25 15:26 29.37684 104.27975 35981 ft 462 kts
2026-04-25 15:26 29.44045 104.29064 35980 ft 463 kts
2026-04-25 15:27 29.50418 104.30142 35982 ft 463 kts
2026-04-25 15:28 29.59977 104.31757 35988 ft 463 kts
2026-04-25 15:28 29.66355 104.32851 35999 ft 463 kts
2026-04-25 15:29 29.72731 104.33938 36003 ft 463 kts
2026-04-25 15:29 29.79102 104.35020 36002 ft 463 kts
2026-04-25 15:30 29.85477 104.36114 36003 ft 463 kts
2026-04-25 15:30 29.91853 104.37207 36015 ft 463 kts
2026-04-25 15:31 29.98223 104.38294 36006 ft 463 kts
2026-04-25 15:31 30.04593 104.39390 36003 ft 463 kts
2026-04-25 15:32 30.10956 104.40490 36009 ft 463 kts
2026-04-25 15:32 30.17327 104.41590 36028 ft 463 kts
2026-04-25 15:33 30.26894 104.43247 36034 ft 464 kts
2026-04-25 15:33 30.33281 104.44365 36033 ft 464 kts
2026-04-25 15:34 30.39676 104.45486 36033 ft 464 kts
2026-04-25 15:34 30.43950 104.46232 36031 ft 464 kts
2026-04-25 15:35 30.55555 104.48270 36023 ft 464 kts
2026-04-25 15:36 30.64911 104.47562 36015 ft 444 kts 337°
2026-04-25 15:36 30.70781 104.45297 36028 ft 445 kts 337°
2026-04-25 15:37 30.76645 104.43039 36015 ft 444 kts 337°
2026-04-25 15:37 30.82525 104.40787 36014 ft 444 kts 337°
2026-04-25 15:38 30.88534 104.39015 36014 ft 453 kts 350°
2026-04-25 15:38 30.94872 104.38804 36017 ft 456 kts 353°
2026-04-25 15:39 31.01225 104.38641 36034 ft 456 kts 353°
2026-04-25 15:39 31.07571 104.38465 36030 ft 456 kts 353°
2026-04-25 15:40 31.11816 104.38351 36025 ft 456 kts 353°
2026-04-25 15:40 31.20259 104.38128 36024 ft 456 kts 353°
2026-04-25 15:41 31.26615 104.37948 36040 ft 456 kts 352°
2026-04-25 15:41 31.32950 104.37613 36037 ft 456 kts 351°
2026-04-25 15:42 31.39280 104.37191 36045 ft 456 kts 351°
2026-04-25 15:42 31.45576 104.36796 36031 ft 456 kts 352°
2026-04-25 15:43 31.51910 104.36424 36039 ft 456 kts 352°
2026-04-25 15:43 31.58283 104.36060 36040 ft 455 kts 352°
2026-04-25 15:44 31.64614 104.35697 36063 ft 455 kts 352°
2026-04-25 15:44 31.70890 104.35328 36094 ft 455 kts 352°
2026-04-25 15:45 31.77209 104.34953 36086 ft 455 kts 352°
2026-04-25 15:45 31.81441 104.34714 36117 ft 455 kts 352°
2026-04-25 15:46 31.89872 104.34295 36101 ft 455 kts 352°
2026-04-25 15:46 31.96201 104.33987 36126 ft 456 kts 352°
2026-04-25 15:47 32.02538 104.33664 36121 ft 455 kts 352°
2026-04-25 15:47 32.08862 104.33330 36133 ft 454 kts 352°
2026-04-25 15:48 32.15178 104.33002 36141 ft 455 kts 351°
2026-04-25 15:48 32.21507 104.32673 36134 ft 455 kts 351°
2026-04-25 15:49 32.27826 104.32347 36126 ft 454 kts 352°
2026-04-25 15:49 32.34130 104.32026 36153 ft 454 kts 351°
2026-04-25 15:50 32.40442 104.31704 36150 ft 453 kts 351°
2026-04-25 15:50 32.46743 104.31387 36144 ft 453 kts 352°
2026-04-25 15:51 32.50959 104.31181 36152 ft 453 kts 352°
2026-04-25 15:51 32.59357 104.30783 36146 ft 453 kts 352°
2026-04-25 15:52 32.65652 104.30483 36141 ft 452 kts 352°
2026-04-25 15:52 32.71936 104.30185 36135 ft 452 kts 352°
2026-04-25 15:53 32.78215 104.29888 36128 ft 451 kts 352°
2026-04-25 15:53 32.84492 104.29581 36128 ft 451 kts 352°
2026-04-25 15:54 32.89704 104.29327 36108 ft 451 kts 351°
2026-04-25 15:54 32.97039 104.28962 36123 ft 452 kts 351°
2026-04-25 15:55 33.03319 104.28666 36124 ft 452 kts 351°
2026-04-25 15:55 33.09596 104.28369 36109 ft 451 kts 351°
2026-04-25 15:56 33.15873 104.28050 36109 ft 451 kts 351°
2026-04-25 15:56 33.22148 104.27737 36108 ft 452 kts 351°
2026-04-25 15:57 33.28423 104.27426 36101 ft 451 kts 351°
2026-04-25 15:57 33.34635 104.26764 36099 ft 442 kts 341°
2026-04-25 15:58 33.39300 104.24646 36114 ft 431 kts 326°
2026-04-25 15:58 33.44509 104.21107 36108 ft 431 kts 326°
2026-04-25 15:59 33.49716 104.17557 36096 ft 431 kts 326°
2026-04-25 15:59 33.54937 104.13994 36086 ft 432 kts 326°
2026-04-25 16:00 33.59596 104.11710 36082 ft 443 kts 341°
2026-04-25 16:00 33.63723 104.11168 36076 ft 453 kts 354°
2026-04-25 16:00 33.66872 104.11186 36085 ft 453 kts 354°
2026-04-25 16:01 33.73191 104.11202 36080 ft 454 kts 353°
2026-04-25 16:01 33.79516 104.11193 36078 ft 455 kts 353°
2026-04-25 16:02 33.85843 104.11188 36070 ft 455 kts 353°
2026-04-25 16:02 33.92176 104.11188 36076 ft 455 kts 353°
2026-04-25 16:03 33.98509 104.11190 36076 ft 454 kts 353°
2026-04-25 16:03 34.04803 104.11186 36081 ft 453 kts 353°
2026-04-25 16:04 34.11102 104.11190 36063 ft 451 kts 353°
2026-04-25 16:04 34.16321 104.11186 36070 ft 452 kts 353°
2026-04-25 16:05 34.24138 104.11177 36072 ft 451 kts 352°
2026-04-25 16:06 34.33543 104.11179 36078 ft 450 kts 352°
2026-04-25 16:06 34.39809 104.11183 36075 ft 450 kts 352°
2026-04-25 16:07 34.46073 104.11184 36079 ft 449 kts 352°
2026-04-25 16:07 34.52324 104.11187 36085 ft 449 kts 352°
2026-04-25 16:08 34.58576 104.11190 36089 ft 449 kts 352°
2026-04-25 16:08 34.64835 104.11187 36092 ft 450 kts 352°
2026-04-25 16:09 34.71081 104.11186 36087 ft 446 kts 352°
2026-04-25 16:09 34.77281 104.11189 36097 ft 445 kts 352°
2026-04-25 16:10 34.83432 104.11189 36101 ft 445 kts 352°
2026-04-25 16:10 34.89619 104.11193 36101 ft 444 kts 352°
2026-04-25 16:11 34.95796 104.11193 36104 ft 442 kts 352°
2026-04-25 16:11 35.01951 104.11199 36106 ft 442 kts 351°
2026-04-25 16:12 35.08094 104.11201 36109 ft 441 kts 351°
2026-04-25 16:12 35.14232 104.11201 36116 ft 441 kts 351°
2026-04-25 16:13 35.20375 104.11201 36122 ft 440 kts 352°
2026-04-25 16:13 35.26489 104.11202 36125 ft 439 kts 352°
2026-04-25 16:14 35.32601 104.11198 36139 ft 439 kts 352°
2026-04-25 16:14 35.38723 104.11197 36139 ft 440 kts 351°
2026-04-25 16:15 35.44845 104.11193 36158 ft 440 kts 351°
2026-04-25 16:15 35.50968 104.11189 36156 ft 440 kts 351°
2026-04-25 16:16 35.57084 104.11215 36159 ft 440 kts 351°
2026-04-25 16:16 35.63209 104.11249 36162 ft 440 kts 351°
2026-04-25 16:17 35.69327 104.11273 36159 ft 439 kts 351°
2026-04-25 16:17 35.75443 104.11302 36164 ft 439 kts 351°
2026-04-25 16:18 35.81556 104.11331 36168 ft 440 kts 351°
2026-04-25 16:18 35.87586 104.10823 36167 ft 433 kts 346°
2026-04-25 16:19 35.93593 104.10171 36185 ft 433 kts 346°
2026-04-25 16:19 35.99597 104.09518 36178 ft 432 kts 346°
2026-04-25 16:20 36.08576 104.08529 36181 ft 432 kts 346°
2026-04-25 16:21 36.17511 104.07549 36171 ft 430 kts 346°
2026-04-25 16:21 36.23449 104.06899 36159 ft 427 kts 346°
2026-04-25 16:22 36.29377 104.06245 36163 ft 428 kts 346°
2026-04-25 16:22 36.35311 104.05600 36166 ft 428 kts 346°
2026-04-25 16:23 36.41246 104.04954 36196 ft 428 kts 346°
2026-04-25 16:23 36.46219 104.04402 36195 ft 428 kts 346°
2026-04-25 16:24 36.52106 104.03749 36201 ft 428 kts 346°
2026-04-25 16:24 36.57898 104.02581 36185 ft 413 kts 333°
2026-04-25 16:24 36.60444 104.01046 36190 ft 403 kts 322°
2026-04-25 16:25 36.62621 103.98909 36186 ft 396 kts 311°
2026-04-25 16:25 36.65710 103.93344 36181 ft 392 kts 298°
2026-04-25 16:26 36.68308 103.87361 36194 ft 393 kts 298°
2026-04-25 16:26 36.70917 103.81363 36192 ft 394 kts 297°
2026-04-25 16:27 36.73529 103.75349 36218 ft 395 kts 297°
2026-04-25 16:27 36.76133 103.69320 36217 ft 395 kts 297°
2026-04-25 16:28 36.78727 103.63295 36227 ft 395 kts 297°
2026-04-25 16:28 36.81327 103.57257 36230 ft 395 kts 297°
2026-04-25 16:29 36.83924 103.51223 36243 ft 395 kts 297°
2026-04-25 16:29 36.86522 103.45168 36233 ft 396 kts 297°
2026-04-25 16:30 36.89117 103.39102 36233 ft 396 kts 297°
2026-04-25 16:30 36.91719 103.33031 36246 ft 397 kts 297°
2026-04-25 16:31 36.94339 103.26963 36250 ft 397 kts 298°
2026-04-25 16:31 36.97236 103.21071 36253 ft 398 kts 301°
2026-04-25 16:32 37.00264 103.15279 36283 ft 398 kts 302°
2026-04-25 16:32 37.03260 103.09458 36261 ft 398 kts 301°
2026-04-25 16:33 37.06212 103.03587 36268 ft 398 kts 300°
2026-04-25 16:33 37.09125 102.97743 36271 ft 399 kts 300°
2026-04-25 16:34 37.12064 102.91846 36272 ft 399 kts 300°
2026-04-25 16:34 37.15006 102.85954 36280 ft 399 kts 300°
2026-04-25 16:35 37.16000 102.83964 36281 ft 399 kts 300°
2026-04-25 16:35 37.20863 102.74200 36279 ft 399 kts 300°
2026-04-25 16:36 37.23779 102.68339 36270 ft 399 kts 300°
2026-04-25 16:36 37.26712 102.62438 36284 ft 398 kts 300°
2026-04-25 16:37 37.29649 102.56494 36312 ft 397 kts 300°
2026-04-25 16:37 37.32560 102.50601 36303 ft 397 kts 300°
2026-04-25 16:38 37.35380 102.44706 36289 ft 396 kts 295°
2026-04-25 16:38 37.36997 102.38061 36273 ft 396 kts 285°
2026-04-25 16:39 37.38310 102.31328 36277 ft 397 kts 285°
2026-04-25 16:39 37.39635 102.24596 36279 ft 397 kts 285°
2026-04-25 16:40 37.40961 102.17864 36270 ft 396 kts 285°
2026-04-25 16:40 37.42275 102.11123 36276 ft 397 kts 285°
2026-04-25 16:41 37.43587 102.04373 36289 ft 398 kts 285°
2026-04-25 16:41 37.45546 101.94257 36262 ft 399 kts 284°
2026-04-25 16:42 37.46852 101.87449 36252 ft 402 kts 285°
2026-04-25 16:42 37.48162 101.80633 36251 ft 401 kts 285°
2026-04-25 16:43 37.49469 101.73829 36236 ft 399 kts 284°
2026-04-25 16:43 37.51071 101.67186 36211 ft 397 kts 295°
2026-04-25 16:44 37.53683 101.61042 36215 ft 399 kts 296°
2026-04-25 16:44 37.56321 101.54879 36232 ft 402 kts 297°
2026-04-25 16:45 37.58966 101.48669 36233 ft 402 kts 297°
2026-04-25 16:45 37.61607 101.42463 36229 ft 401 kts 297°
2026-04-25 16:46 37.64241 101.36254 36230 ft 402 kts 296°
2026-04-25 16:46 37.66005 101.32089 36230 ft 402 kts 296°
2026-04-25 16:47 37.69513 101.23791 36214 ft 404 kts 297°
2026-04-25 16:47 37.72157 101.17523 36213 ft 405 kts 297°
2026-04-25 16:48 37.74807 101.11234 36217 ft 406 kts 296°
2026-04-25 16:48 37.77445 101.04971 36218 ft 406 kts 296°
2026-04-25 16:49 37.80095 100.98658 36223 ft 407 kts 296°
2026-04-25 16:49 37.82739 100.92336 36224 ft 407 kts 296°
2026-04-25 16:50 37.85457 100.86048 36230 ft 408 kts 298°
2026-04-25 16:50 37.88284 100.79824 36227 ft 408 kts 298°
2026-04-25 16:51 37.91102 100.73591 36228 ft 408 kts 298°
2026-04-25 16:51 37.92965 100.69412 36235 ft 407 kts 298°
2026-04-25 16:52 37.96657 100.61091 36227 ft 406 kts 298°
2026-04-25 16:52 37.99419 100.54845 36229 ft 407 kts 297°
2026-04-25 16:53 38.03568 100.45461 36224 ft 407 kts 297°
2026-04-25 16:54 38.06329 100.39201 36235 ft 406 kts 297°
2026-04-25 16:54 38.09081 100.32940 36237 ft 406 kts 297°
2026-04-25 16:55 38.11831 100.26671 36231 ft 407 kts 298°
2026-04-25 16:55 38.14593 100.20392 36239 ft 407 kts 297°
2026-04-25 16:56 38.17344 100.14107 36229 ft 408 kts 297°
2026-04-25 16:56 38.20096 100.07792 36229 ft 408 kts 297°
2026-04-25 16:57 38.22844 100.01477 36231 ft 408 kts 297°
2026-04-25 16:57 38.25594 99.95149 36253 ft 408 kts 297°
2026-04-25 16:58 38.28329 99.88830 36250 ft 408 kts 297°
2026-04-25 16:58 38.31066 99.82513 36245 ft 407 kts 297°
2026-04-25 16:59 38.33788 99.76227 36231 ft 408 kts 297°
2026-04-25 16:59 38.36527 99.69882 36228 ft 409 kts 297°
2026-04-25 17:00 38.39265 99.63514 36243 ft 410 kts 297°
2026-04-25 17:00 38.41991 99.57168 36249 ft 410 kts 296°
2026-04-25 17:01 38.44730 99.50785 36254 ft 410 kts 296°
2026-04-25 17:01 38.47468 99.44380 36005 ft 414 kts 297°
2026-04-25 17:01 38.48839 99.41165 35431 ft 415 kts 296°
2026-04-25 17:02 38.50220 99.37926 35262 ft 416 kts 296°
2026-04-25 17:02 38.51603 99.34689 35588 ft 414 kts 296°
2026-04-25 17:02 38.52977 99.31466 35883 ft 413 kts 296°
2026-04-25 17:03 38.55722 99.25009 36162 ft 414 kts 296°
2026-04-25 17:03 38.58476 99.18539 36093 ft 414 kts 296°
2026-04-25 17:03 38.59849 99.15310 35843 ft 414 kts 296°
2026-04-25 17:04 38.61215 99.12081 35239 ft 411 kts 296°
2026-04-25 17:04 38.62569 99.08871 34622 ft 409 kts 296°
2026-04-25 17:04 38.63916 99.05683 34016 ft 407 kts 296°
2026-04-25 17:04 38.64370 99.04605 33792 ft 407 kts 296°
2026-04-25 17:05 38.69078 98.93375 31542 ft 413 kts 296°
2026-04-25 17:05 38.70441 98.90132 30936 ft 415 kts 296°
2026-04-25 17:06 38.71818 98.86865 30351 ft 418 kts 296°
2026-04-25 17:06 38.73196 98.83584 29686 ft 420 kts 296°
2026-04-25 17:06 38.74585 98.80275 29003 ft 423 kts 296°
2026-04-25 17:06 38.75981 98.76940 28332 ft 427 kts 296°
2026-04-25 17:07 38.77388 98.73574 27683 ft 430 kts 297°
2026-04-25 17:07 38.78803 98.70187 27115 ft 433 kts 296°
2026-04-25 17:07 38.80230 98.66762 26763 ft 437 kts 296°
2026-04-25 17:07 38.81661 98.63321 26699 ft 438 kts 296°
2026-04-25 17:08 38.83097 98.59868 26701 ft 440 kts 297°
2026-04-25 17:08 38.84538 98.56405 26700 ft 440 kts 297°
2026-04-25 17:08 38.85977 98.52944 26698 ft 440 kts 296°
2026-04-25 17:08 38.87396 98.49528 26698 ft 440 kts 297°
2026-04-25 17:09 38.88836 98.46058 26690 ft 440 kts 296°
2026-04-25 17:09 38.90272 98.42589 26690 ft 440 kts 296°
2026-04-25 17:09 38.91705 98.39120 26691 ft 440 kts 296°
2026-04-25 17:09 38.93133 98.35654 26691 ft 440 kts 296°
2026-04-25 17:10 38.94563 98.32182 26678 ft 439 kts 296°
2026-04-25 17:10 38.95973 98.28755 26676 ft 439 kts 296°
2026-04-25 17:10 38.97400 98.25290 26676 ft 439 kts 296°
2026-04-25 17:10 38.98828 98.21831 26676 ft 439 kts 296°
2026-04-25 17:11 39.00260 98.18360 26675 ft 439 kts 296°
2026-04-25 17:11 39.01684 98.14895 26675 ft 439 kts 296°
2026-04-25 17:11 39.03108 98.11425 26677 ft 439 kts 296°
2026-04-25 17:11 39.04526 98.07951 26677 ft 439 kts 296°
2026-04-25 17:12 39.05944 98.04476 26672 ft 439 kts 296°
2026-04-25 17:12 39.07362 98.01003 26680 ft 439 kts 296°
2026-04-25 17:12 39.08783 97.97524 26705 ft 439 kts 296°
2026-04-25 17:12 39.10202 97.94045 26693 ft 439 kts 296°
2026-04-25 17:13 39.11616 97.90567 26694 ft 439 kts 296°
2026-04-25 17:13 39.12095 97.89388 26700 ft 439 kts 296°
2026-04-25 17:13 39.14445 97.83592 26698 ft 439 kts 296°
2026-04-25 17:13 39.15857 97.80116 26700 ft 439 kts 296°
2026-04-25 17:14 39.17275 97.76624 26696 ft 439 kts 296°
2026-04-25 17:14 39.18687 97.73133 26701 ft 439 kts 296°
2026-04-25 17:14 39.20100 97.69641 26701 ft 439 kts 296°
2026-04-25 17:14 39.21507 97.66155 26700 ft 439 kts 296°
2026-04-25 17:15 39.22441 97.63842 26700 ft 439 kts 296°
2026-04-25 17:15 39.24329 97.59166 26698 ft 439 kts 296°
2026-04-25 17:15 39.25740 97.55673 26683 ft 440 kts 296°
2026-04-25 17:15 39.27152 97.52176 26683 ft 440 kts 296°
2026-04-25 17:16 39.28565 97.48676 26680 ft 440 kts 296°
2026-04-25 17:16 39.29982 97.45170 26680 ft 440 kts 296°
2026-04-25 17:16 39.31394 97.41663 26680 ft 440 kts 296°
2026-04-25 17:16 39.32799 97.38158 26680 ft 440 kts 296°
2026-04-25 17:17 39.34205 97.34642 26684 ft 440 kts 296°
2026-04-25 17:17 39.35609 97.31132 26699 ft 440 kts 296°
2026-04-25 17:17 39.37017 97.27617 26686 ft 440 kts 296°
2026-04-25 17:17 39.38424 97.24103 26687 ft 441 kts 296°
2026-04-25 17:18 39.39830 97.20583 26691 ft 441 kts 296°
2026-04-25 17:18 39.41232 97.17063 26689 ft 441 kts 296°
2026-04-25 17:18 39.42637 97.13534 26679 ft 441 kts 296°
2026-04-25 17:18 39.44036 97.10015 26679 ft 441 kts 296°
2026-04-25 17:19 39.45438 97.06489 26681 ft 441 kts 296°
2026-04-25 17:19 39.46842 97.02962 26665 ft 441 kts 296°
2026-04-25 17:19 39.48249 96.99440 26666 ft 441 kts 296°
2026-04-25 17:19 39.49662 96.95917 26661 ft 441 kts 296°
2026-04-25 17:20 39.51080 96.92392 26663 ft 441 kts 296°
2026-04-25 17:20 39.52496 96.88868 26664 ft 441 kts 296°
2026-04-25 17:20 39.53907 96.85344 26663 ft 441 kts 296°
2026-04-25 17:20 39.55312 96.81820 26495 ft 442 kts 296°
2026-04-25 17:21 39.56722 96.78279 26095 ft 442 kts 296°
2026-04-25 17:21 39.58133 96.74731 25735 ft 443 kts 296°
2026-04-25 17:21 39.59542 96.71181 25385 ft 444 kts 296°
2026-04-25 17:21 39.60960 96.67613 25041 ft 446 kts 296°
2026-04-25 17:22 39.62383 96.64034 24704 ft 447 kts 295°
2026-04-25 17:22 39.62844 96.62873 24593 ft 447 kts 295°
2026-04-25 17:22 39.65252 96.56861 24012 ft 449 kts 296°
2026-04-25 17:22 39.66703 96.53276 23691 ft 448 kts 296°
2026-04-25 17:23 39.68151 96.49705 23269 ft 447 kts 296°
2026-04-25 17:23 39.69594 96.46144 22870 ft 445 kts 296°
2026-04-25 17:23 39.71023 96.42602 22473 ft 441 kts 296°
2026-04-25 17:23 39.72439 96.39075 22091 ft 439 kts 296°
2026-04-25 17:24 39.73843 96.35562 21700 ft 437 kts 296°
2026-04-25 17:24 39.75238 96.32058 21321 ft 435 kts 296°
2026-04-25 17:24 39.76624 96.28574 20953 ft 434 kts 296°
2026-04-25 17:24 39.78008 96.25098 20561 ft 432 kts 296°
2026-04-25 17:25 39.79388 96.21636 20188 ft 430 kts 297°
2026-04-25 17:25 39.80765 96.18180 19817 ft 429 kts 297°
2026-04-25 17:25 39.82133 96.14744 19462 ft 428 kts 297°
2026-04-25 17:25 39.83438 96.11466 19133 ft 426 kts 297°
2026-04-25 17:26 39.84826 96.07976 18746 ft 425 kts 297°
2026-04-25 17:26 39.86177 96.04572 18414 ft 423 kts 297°
2026-04-25 17:26 39.87524 96.01171 18025 ft 422 kts 297°
2026-04-25 17:26 39.88863 95.97788 17636 ft 420 kts 297°
2026-04-25 17:27 39.90194 95.94412 17243 ft 419 kts 297°
2026-04-25 17:27 39.91521 95.91045 16856 ft 418 kts 297°
2026-04-25 17:27 39.92847 95.87681 16478 ft 417 kts 297°
2026-04-25 17:27 39.93294 95.86546 16354 ft 416 kts 297°
2026-04-25 17:28 39.95484 95.80987 15761 ft 414 kts 297°
2026-04-25 17:28 39.96796 95.77651 15672 ft 413 kts 296°
2026-04-25 17:28 39.98078 95.74294 15667 ft 414 kts 296°
2026-04-25 17:28 39.99330 95.70919 15016 ft 413 kts 295°
2026-04-25 17:29 40.00558 95.67550 14745 ft 412 kts 295°
2026-04-25 17:29 40.01786 95.64171 14556 ft 412 kts 295°
2026-04-25 17:29 40.03016 95.60795 14346 ft 412 kts 295°
2026-04-25 17:29 40.04247 95.57420 14068 ft 411 kts 295°
2026-04-25 17:30 40.05477 95.54052 13789 ft 411 kts 295°
2026-04-25 17:30 40.06707 95.50692 13437 ft 410 kts 295°
2026-04-25 17:30 40.08076 95.47442 13067 ft 409 kts 303°
2026-04-25 17:30 40.09851 95.44543 12793 ft 408 kts 311°
2026-04-25 17:31 40.11749 95.41790 12521 ft 408 kts 311°
2026-04-25 17:31 40.13642 95.39036 12257 ft 406 kts 311°
2026-04-25 17:31 40.15521 95.36292 11968 ft 404 kts 311°
2026-04-25 17:31 40.17395 95.33548 11691 ft 404 kts 311°
2026-04-25 17:32 40.18631 95.31736 11505 ft 404 kts 312°
2026-04-25 17:32 40.20475 95.29030 11280 ft 390 kts 312°
2026-04-25 17:32 40.22235 95.26441 11160 ft 372 kts 312°
2026-04-25 17:32 40.23914 95.23968 11035 ft 355 kts 313°
2026-04-25 17:33 40.25516 95.21607 10915 ft 340 kts 313°
2026-04-25 17:33 40.27058 95.19337 10802 ft 327 kts 312°
2026-04-25 17:33 40.28337 95.16945 10669 ft 316 kts 298°
2026-04-25 17:33 40.29101 95.14298 10553 ft 307 kts 284°
2026-04-25 17:34 40.29354 95.11552 10310 ft 303 kts 270°
2026-04-25 17:34 40.29183 95.08815 10113 ft 302 kts 266°
2026-04-25 17:34 40.28967 95.06075 9970 ft 302 kts 266°
2026-04-25 17:34 40.28755 95.03324 9808 ft 304 kts 266°
2026-04-25 17:35 40.28545 95.00566 9612 ft 305 kts 266°
2026-04-25 17:35 40.28332 94.97807 9404 ft 302 kts 265°
2026-04-25 17:35 40.28120 94.95066 9233 ft 304 kts 266°
2026-04-25 17:35 40.27909 94.92332 9058 ft 299 kts 265°
2026-04-25 17:36 40.27698 94.89627 8883 ft 300 kts 265°
2026-04-25 17:36 40.27486 94.86904 8702 ft 302 kts 266°
2026-04-25 17:36 40.27274 94.84206 8522 ft 300 kts 265°
2026-04-25 17:36 40.27060 94.81474 8342 ft 303 kts 266°
2026-04-25 17:37 40.26845 94.78738 8164 ft 302 kts 265°
2026-04-25 17:37 40.26626 94.76004 7981 ft 300 kts 265°
2026-04-25 17:37 40.26408 94.73280 7801 ft 302 kts 265°
2026-04-25 17:37 40.26189 94.70553 7616 ft 300 kts 265°
2026-04-25 17:38 40.25970 94.67879 7438 ft 291 kts 265°
2026-04-25 17:38 40.25827 94.66147 7320 ft 284 kts 265°
2026-04-25 17:38 40.25550 94.62793 7106 ft 271 kts 265°
2026-04-25 17:38 40.25189 94.60416 6943 ft 262 kts 246°
2026-04-25 17:39 40.24133 94.58553 6792 ft 254 kts 216°
2026-04-25 17:39 40.22592 94.57585 6620 ft 249 kts 187°
2026-04-25 17:39 40.20888 94.57578 6454 ft 244 kts 168°
2026-04-25 17:39 40.19212 94.57805 6291 ft 240 kts 168°
2026-04-25 17:40 40.17574 94.58028 6125 ft 234 kts 168°
2026-04-25 17:40 40.16027 94.58473 5963 ft 221 kts 146°
2026-04-25 17:40 40.14992 94.59797 5831 ft 200 kts 111°
2026-04-25 17:40 40.14716 94.61448 5799 ft 176 kts 82°
2026-04-25 17:41 40.14871 94.62955 5780 ft 159 kts 79°
2026-04-25 17:41 40.15014 94.64337 5780 ft 151 kts 81°
2026-04-25 17:41 40.15043 94.65702 5641 ft 147 kts 84°
2026-04-25 17:41 40.15101 94.67019 5467 ft 144 kts 83°
2026-04-25 17:42 40.15183 94.68315 5285 ft 142 kts 82°
2026-04-25 17:42 40.15276 94.69597 5101 ft 142 kts 82°
2026-04-25 17:42 40.15375 94.70886 4932 ft 142 kts 82°
2026-04-25 17:42 40.15476 94.72179 4761 ft 142 kts 82°
2026-04-25 17:43 40.15577 94.73458 4582 ft 142 kts 83°
2026-04-25 17:43 40.15679 94.74742 4375 ft 140 kts 83°
2026-04-25 17:43 40.15781 94.76014 4205 ft 142 kts 82°
2026-04-25 17:43 40.15883 94.77309 4018 ft 142 kts 83°
2026-04-25 17:44 40.15986 94.78604 3830 ft 144 kts 82°
2026-04-25 17:44 40.16083 94.79889 3714 ft 133 kts 82°
2026-04-25 17:44 40.16169 94.81112 3955 ft 149 kts 82°
2026-04-25 17:44 40.16282 94.82438 4758 ft 149 kts 82°
2026-04-25 17:45 40.16424 94.83775 5199 ft 150 kts 82°
2026-04-25 17:45 40.16525 94.84705 5292 ft 162 kts 82°
2026-04-25 17:45 40.16723 94.86812 5467 ft 186 kts 82°
2026-04-25 17:45 40.16880 94.88586 5618 ft 206 kts 83°
2026-04-25 17:46 40.17055 94.90476 6094 ft 211 kts 82°
2026-04-25 17:46 40.17205 94.92318 6598 ft 222 kts 83°
2026-04-25 17:46 40.17401 94.94387 6808 ft 234 kts 82°
2026-04-25 17:46 40.17746 94.96471 6860 ft 236 kts 65°
2026-04-25 17:47 40.18692 94.98154 6865 ft 234 kts 38°
2026-04-25 17:47 40.20134 94.99089 6864 ft 233 kts 10°
2026-04-25 17:47 40.21734 94.99040 6863 ft 232 kts 342°
2026-04-25 17:47 40.23129 94.98035 6862 ft 231 kts 315°
2026-04-25 17:48 40.24245 94.94245 6859 ft 231 kts 271°
2026-04-25 17:48 40.24285 94.92141 6860 ft 232 kts 271°
2026-04-25 17:48 40.24332 94.90036 6860 ft 232 kts 271°
2026-04-25 17:49 40.24383 94.87929 6860 ft 232 kts 271°
2026-04-25 17:49 40.24435 94.85823 6863 ft 231 kts 271°
2026-04-25 17:49 40.24484 94.83712 6860 ft 232 kts 271°
2026-04-25 17:49 40.24534 94.81606 6859 ft 232 kts 271°
2026-04-25 17:50 40.24584 94.79499 6718 ft 232 kts 273°
2026-04-25 17:50 40.24636 94.77319 6784 ft 247 kts 274°
2026-04-25 17:50 40.24691 94.75044 6796 ft 251 kts 274°
2026-04-25 17:50 40.24744 94.72753 6795 ft 252 kts 274°
2026-04-25 17:51 40.24794 94.70459 6794 ft 252 kts 274°
2026-04-25 17:51 40.24843 94.68164 6795 ft 252 kts 274°
2026-04-25 17:51 40.24894 94.65877 6794 ft 251 kts 274°
2026-04-25 17:51 40.24946 94.63597 6794 ft 251 kts 274°
2026-04-25 17:52 40.24970 94.61302 6793 ft 253 kts 266°
2026-04-25 17:52 40.24681 94.59840 6796 ft 252 kts 243°
2026-04-25 17:52 40.23034 94.57766 6627 ft 251 kts 198°
2026-04-25 17:52 40.21369 94.57512 6449 ft 236 kts 169°
2026-04-25 17:53 40.19777 94.57738 6393 ft 225 kts 169°
2026-04-25 17:53 40.18238 94.57946 6336 ft 220 kts 169°
2026-04-25 17:53 40.16722 94.58170 6292 ft 217 kts 163°
2026-04-25 17:53 40.15432 94.59001 6270 ft 198 kts 130°
2026-04-25 17:54 40.14746 94.60401 6236 ft 173 kts 101°
2026-04-25 17:54 40.14641 94.61875 6141 ft 158 kts 80°
2026-04-25 17:54 40.14755 94.63272 5979 ft 152 kts 80°
2026-04-25 17:54 40.14865 94.64611 5825 ft 145 kts 81°
2026-04-25 17:55 40.14972 94.65917 5598 ft 143 kts 81°
2026-04-25 17:55 40.15075 94.67203 5417 ft 142 kts 81°
2026-04-25 17:55 40.15180 94.68482 5265 ft 142 kts 81°
2026-04-25 17:55 40.15283 94.69769 5066 ft 141 kts 82°
2026-04-25 17:56 40.15384 94.71053 4891 ft 143 kts 82°
2026-04-25 17:56 40.15485 94.72329 4740 ft 141 kts 82°
2026-04-25 17:56 40.15590 94.73603 4542 ft 141 kts 84°
2026-04-25 17:56 40.15690 94.74868 4380 ft 136 kts 83°
2026-04-25 17:57 40.15800 94.76148 4149 ft 144 kts 82°
2026-04-25 17:57 40.15899 94.77451 3999 ft 141 kts 83°
2026-04-25 17:57 40.15998 94.78729 3793 ft 141 kts 83°
2026-04-25 17:57 40.16029 94.79143 3760 ft 140 kts 83°
2026-04-25 17:58 40.16191 94.81460 4069 ft 171 kts 83°
2026-04-25 17:58 40.16324 94.82995 4731 ft 168 kts 82°
2026-04-25 17:58 40.16492 94.84498 5312 ft 171 kts 80°
2026-04-25 17:58 40.17025 94.85969 5565 ft 196 kts 47°
2026-04-25 17:59 40.18350 94.86648 6072 ft 221 kts
2026-04-25 17:59 40.19827 94.85934 6626 ft 241 kts 324°
2026-04-25 17:59 40.20778 94.84143 6761 ft 246 kts 292°
2026-04-25 17:59 40.21203 94.81967 6790 ft 249 kts 282°
2026-04-25 18:00 40.21454 94.79724 6818 ft 249 kts 278°
2026-04-25 18:00 40.21691 94.77480 6802 ft 248 kts 280°
2026-04-25 18:00 40.21966 94.75253 6802 ft 249 kts 282°
2026-04-25 18:00 40.22286 94.73026 6802 ft 249 kts 284°
2026-04-25 18:01 40.22637 94.70814 6799 ft 248 kts 284°
2026-04-25 18:01 40.23009 94.68608 6794 ft 248 kts 285°
2026-04-25 18:01 40.23394 94.66409 6794 ft 248 kts 286°
2026-04-25 18:01 40.23788 94.64207 6799 ft 249 kts 285°
2026-04-25 18:02 40.24156 94.61997 6796 ft 250 kts 278°
2026-04-25 18:02 40.23882 94.59767 6798 ft 252 kts 242°
2026-04-25 18:02 40.22723 94.58118 6795 ft 247 kts 206°
2026-04-25 18:02 40.21096 94.57549 6657 ft 244 kts 173°
2026-04-25 18:03 40.19426 94.57750 6344 ft 241 kts 169°
2026-04-25 18:03 40.17740 94.58005 5889 ft 244 kts 163°
2026-04-25 18:03 40.16249 94.58806 5889 ft 225 kts 142°
2026-04-25 18:03 40.15204 94.60321 5871 ft 228 kts 118°
2026-04-25 18:04 40.14740 94.62256 5855 ft 219 kts 93°
2026-04-25 18:04 40.14831 94.64195 5840 ft 212 kts 83°
2026-04-25 18:04 40.14982 94.66047 5670 ft 197 kts 84°
2026-04-25 18:04 40.15122 94.67774 5424 ft 185 kts 83°
2026-04-25 18:05 40.15250 94.69370 5215 ft 168 kts 84°
2026-04-25 18:05 40.15366 94.70831 4983 ft 157 kts 83°
2026-04-25 18:05 40.15476 94.72208 4781 ft 152 kts 83°
2026-04-25 18:05 40.15588 94.73592 4582 ft 150 kts 83°
2026-04-25 18:06 40.15697 94.74927 4386 ft 149 kts 83°
2026-04-25 18:06 40.15804 94.76290 4191 ft 148 kts 83°
2026-04-25 18:06 40.15910 94.77629 3994 ft 148 kts 84°
2026-04-25 18:06 40.16014 94.78962 3808 ft 147 kts 84°
2026-04-25 18:07 40.16117 94.80283 3704 ft 143 kts 83°
2026-04-25 18:07 40.16209 94.81385 3694 ft 101 kts 85°
2026-04-25 18:07 40.16258 94.82072 3700 ft 51 kts 84°
2026-04-25 18:07 40.16284 94.82399 3699 ft 23 kts 82°
2026-04-25 18:08 40.16330 94.82515 3700 ft 14 kts 15°
2026-04-25 18:08 40.16352 94.82463 3699 ft 7 kts 266°
2026-04-25 18:08 40.16323 94.82371 3699 ft 16 kts 236°
2026-04-25 18:08 40.16272 94.82218 3704 ft 22 kts 263°
2026-04-25 18:09 40.16253 94.81990 3696 ft 28 kts 264°
2026-04-25 18:09 40.16229 94.81716 3693 ft 33 kts 263°
2026-04-25 18:09 40.16206 94.81460 3696 ft 12 kts 264°
2026-04-25 18:09 40.16205 94.81421 3694 ft 13 kts 270°
2026-04-25 18:10 40.16306 94.81330 3697 ft 10 kts 354°
2026-04-25 18:10 40.16366 94.81322 3698 ft 10 kts 354°
2026-04-25 18:10 40.16445 94.81274 3705 ft 17 kts 288°
2026-04-25 18:10 40.16435 94.81096 3699 ft 21 kts 265°
2026-04-25 18:11 40.16420 94.80901 3699 ft 22 kts 264°
2026-04-25 18:11 40.16404 94.80700 3699 ft 21 kts 262°
2026-04-25 18:11 40.16422 94.80612 3701 ft 9 kts 320°
2026-04-25 18:11 40.16472 94.80609 3699 ft 5 kts 360°
2026-04-25 18:12 40.16487 94.80607 3699 ft 2 kts 354°
2026-04-25 18:12 40.16502 94.80604 3699 ft 0 kts 353°